This is the latest recevied weather packets stored in our database for station/object SP2NBH-2. If no packets are shown the sender has not sent any weather packets the latest 10 day(s).
| Time | Temp. | Humidity | Pressure | Rain* | Wind** | Luminosity | Snow |
|---|---|---|---|---|---|---|---|
| 1777672209 | 10° C | 64% | 1025.6 hPa | - | - | - | - |
| 1777671309 | 9.44° C | 62% | 1025.6 hPa | - | - | - | - |
| 1777670409 | 9.44° C | 62% | 1025.8 hPa | - | - | - | - |
| 1777669508 | 9.44° C | 62% | 1025.7 hPa | - | - | - | - |
| 1777668641 | 10° C | 65% | 1025.8 hPa | - | - | - | - |
| 1777668608 | 10° C | 65% | 1025.8 hPa | - | - | - | - |
| 1777667741 | 10° C | 56% | 1025.8 hPa | - | - | - | - |
| 1777667708 | 10° C | 56% | 1025.8 hPa | - | - | - | - |
| 1777666808 | 10° C | 56% | 1025.7 hPa | - | - | - | - |
| 1777665908 | 10° C | 56% | 1025.8 hPa | - | - | - | - |
| 1777665007 | 10° C | 56% | 1025.9 hPa | - | - | - | - |
| 1777664139 | 10.56° C | 55% | 1025.9 hPa | - | - | - | - |
| 1777664107 | 10.56° C | 55% | 1025.9 hPa | - | - | - | - |
| 1777663239 | 10.56° C | 55% | 1025.9 hPa | - | - | - | - |
| 1777663207 | 10.56° C | 55% | 1025.9 hPa | - | - | - | - |
| 1777662342 | 11.11° C | 54% | 1025.9 hPa | - | - | - | - |
| 1777662307 | 11.11° C | 54% | 1025.9 hPa | - | - | - | - |
| 1777661406 | 11.67° C | 55% | 1025.9 hPa | - | - | - | - |
| 1777660505 | 12.22° C | 52% | 1025.8 hPa | - | - | - | - |
| 1777659605 | 12.78° C | 55% | 1025.6 hPa | - | - | - | - |
| 1777658737 | 13.89° C | 50% | 1025.4 hPa | - | - | - | - |
| 1777658705 | 13.89° C | 50% | 1025.4 hPa | - | - | - | - |
| 1777657805 | 15° C | 46% | 1025.4 hPa | - | - | - | - |
| 1777656905 | 16.11° C | 41% | 1025.4 hPa | - | - | - | - |
| 1777656036 | 17.22° C | 40% | 1025.4 hPa | - | - | - | - |
* Rain since midnight (hover to see other rain measurements)
** Current wind speed in m/s (hover to see current wind gust speed)